Location: Unspecified
(0.0000°N, 0.0000°E)
Time: 11:19:37
(UTC+00:00)

CUTE 1.7 + AOD 2 - Visible Passes

Search period start: 08 December 2019 00:00
Search period end: 18 December 2019 00:00
Orbit: 593 x 613 km, 97.6° (Epoch: 07 December)

Date Brightness Start Highest point End Pass type
(mag) Time Alt. Az. Time Alt. Az. Time Alt. Az.
09 Dec ? 04:08:35 10° ENE 04:10:27 13° ESE 04:12:19 10° SE visible
10 Dec ? 04:19:24 10° ENE 04:22:24 19° ESE 04:25:26 10° SSE visible
11 Dec ? 04:30:44 10° NE 04:34:23 28° ESE 04:38:02 10° SSE visible
12 Dec ? 04:42:20 10° NNE 04:46:21 41° ESE 04:50:23 10° S visible
13 Dec ? 04:54:06 10° NNE 04:58:19 64° E 05:02:33 10° S visible
14 Dec ? 05:06:02 10° N 05:10:17 84° WNW 05:14:35 10° SSW visible
15 Dec ? 05:18:06 10° N 05:22:16 54° WNW 05:26:28 10° SSW visible
17 Dec ? 04:08:39 10° ENE 04:10:42 13° ESE 04:12:46 10° SE visible
